Weather History for Jefferson, NC

Change the Weather History Date:

Sunday, January 8, 2012

  Actual Average Record
Temperature  
Mean Temperature 42 °F -  
Max Temperature 46 °F 42 °F 62 °F (2008)
Min Temperature 37 °F 22 °F -6 °F (1970)
Degree Days  
Heating Degree Days 24    
Moisture  
Dew Point 37 °F    
Average Humidity 82    
Maximum Humidity 93    
Minimum Humidity 71    
Precipitation  
Precipitation 0.00 in - - ()
Sea Level Pressure  
Sea Level Pressure 30.17 in    
Wind  
Wind Speed 1 mph (SSE)    
Max Wind Speed 7 mph    
Max Gust Speed -    
Visibility 9 miles    
Events Rain    
Averages and records for this station are not official NWS values.
T = Trace of Precipitation, MM = Missing Value Source: NWS Daily Summary

Daily Weather History Graph

Daily Weather History Graph

Search for Another Location

Airport:

Trip Planner

Search our weather history database for the weather conditions in past years. The results will help you decide how hot, cold, wet, or windy it might be!

Date:

Astronomy

Jan. 08, 2012 Rise Set
Actual Time 7:37 AM EST 5:26 PM EST
Civil Twilight 7:09 AM EST 5:55 PM EST
Nautical Twilight 6:37 AM EST 6:27 PM EST
Astronomical Twilight 6:06 AM EST 6:58 PM EST
Moon 5:08 PM EST (1/8) 6:55 AM EST (1/8)
Length of Visible Light 10h 45m
Length of Day
9h 48m
Full, 100% of the Moon is Illuminated
Jan 8
Full
Jan 9
Full
Jan 16
Last Quarter
Jan 23
New
Jan 30
First Quarter

Hourly Weather History & Observations

Time (EST) Temp. Windchill Dew Point Humidity Pressure Visibility Wind Dir Wind Speed Gust Speed Precip Events Conditions
12:15 AM 46.4 °F - 39.2 °F 76% 30.09 in 10.0 mi Calm Calm - N/A   Mostly Cloudy
12:35 AM 46.4 °F - 37.4 °F 71% 30.09 in 10.0 mi Calm Calm - N/A   Mostly Cloudy
12:55 AM 44.6 °F 42.2 °F 37.4 °F 76% 30.09 in 10.0 mi NNW 4.6 mph - N/A   Mostly Cloudy
1:15 AM 44.6 °F 43.1 °F 37.4 °F 76% 30.09 in 10.0 mi NNW 3.5 mph - N/A   Scattered Clouds
1:35 AM 42.8 °F - 37.4 °F 81% 30.09 in 10.0 mi Calm Calm - N/A   Mostly Cloudy
1:55 AM 42.8 °F - 37.4 °F 81% 30.09 in 10.0 mi Calm Calm - N/A   Mostly Cloudy
2:15 AM 42.8 °F - 37.4 °F 81% 30.09 in 10.0 mi Calm Calm - N/A   Mostly Cloudy
2:35 AM 44.6 °F 43.1 °F 37.4 °F 76% 30.10 in 10.0 mi ENE 3.5 mph - N/A   Mostly Cloudy
2:55 AM 42.8 °F 41.1 °F 37.4 °F 81% 30.11 in 10.0 mi SE 3.5 mph - N/A   Mostly Cloudy
3:15 AM 41.0 °F 38.0 °F 35.6 °F 81% 30.11 in 10.0 mi East 4.6 mph - N/A   Mostly Cloudy
3:35 AM 41.0 °F - 35.6 °F 81% 30.11 in 10.0 mi Calm Calm - N/A   Mostly Cloudy
3:55 AM 41.0 °F - 33.8 °F 76% 30.11 in 10.0 mi Calm Calm - N/A   Mostly Cloudy
4:35 AM 39.2 °F 37.0 °F 32.0 °F 75% 30.11 in 10.0 mi ESE 3.5 mph - N/A   Clear
4:55 AM 39.2 °F - 32.0 °F 75% 30.11 in 10.0 mi Calm Calm - N/A   Clear
5:15 AM 41.0 °F - 33.8 °F 76% 30.13 in 10.0 mi Calm Calm - N/A   Clear
5:35 AM 41.0 °F - 33.8 °F 76% 30.13 in 10.0 mi Calm Calm - N/A   Clear
6:15 AM 37.4 °F - 33.8 °F 87% 30.14 in 10.0 mi Calm Calm - N/A   Clear
6:35 AM 39.2 °F - 33.8 °F 81% 30.15 in 10.0 mi Calm Calm - N/A   Scattered Clouds
6:55 AM 37.4 °F - 33.8 °F 87% 30.16 in 10.0 mi Calm Calm - N/A   Scattered Clouds
7:15 AM 37.4 °F - 33.8 °F 87% 30.16 in 10.0 mi Calm Calm - N/A   Scattered Clouds
7:55 AM 39.2 °F - 32.0 °F 75% 30.17 in 10.0 mi Calm Calm - N/A   Mostly Cloudy
8:15 AM 37.4 °F 34.9 °F 33.8 °F 87% 30.18 in 10.0 mi SSW 3.5 mph - N/A   Overcast
8:35 AM 37.4 °F - 33.8 °F 87% 30.19 in 10.0 mi Calm Calm - N/A   Overcast
8:55 AM 37.4 °F - 33.8 °F 87% 30.20 in 10.0 mi Calm Calm - N/A   Overcast
9:15 AM 37.4 °F - 33.8 °F 87% 30.20 in 10.0 mi Calm Calm - N/A   Overcast
9:35 AM 39.2 °F - 33.8 °F 81% 30.21 in 10.0 mi Calm Calm - N/A   Overcast
9:55 AM 41.0 °F - 33.8 °F 76% 30.21 in 10.0 mi Calm Calm - N/A   Overcast
10:15 AM 42.8 °F - 37.4 °F 81% 30.22 in 10.0 mi Calm Calm - N/A   Overcast
10:35 AM 42.8 °F - 37.4 °F 81% 30.22 in 10.0 mi Calm Calm - N/A   Overcast
10:55 AM 42.8 °F - 37.4 °F 81% 30.22 in 10.0 mi Calm Calm - N/A   Overcast
11:15 AM 42.8 °F - 39.2 °F 87% 30.22 in 10.0 mi Calm Calm - N/A   Overcast
11:35 AM 44.6 °F - 39.2 °F 81% 30.22 in 10.0 mi Calm Calm - N/A   Overcast
11:55 AM 44.6 °F - 39.2 °F 81% 30.21 in 10.0 mi Calm Calm - N/A   Overcast
12:15 PM 44.6 °F 43.1 °F 39.2 °F 81% 30.20 in 10.0 mi SSE 3.5 mph - N/A   Overcast
12:35 PM 46.4 °F 44.3 °F 39.2 °F 76% 30.19 in 10.0 mi SSE 4.6 mph - N/A   Overcast
12:55 PM 46.4 °F 45.2 °F 41.0 °F 81% 30.18 in 10.0 mi SSE 3.5 mph - N/A   Overcast
1:15 PM 46.4 °F 45.2 °F 41.0 °F 81% 30.18 in 10.0 mi SSE 3.5 mph - N/A   Overcast
1:35 PM 46.4 °F - 41.0 °F 81% 30.17 in 10.0 mi Calm Calm - N/A   Overcast
1:55 PM 46.4 °F - 41.0 °F 81% 30.17 in 10.0 mi Calm Calm - N/A   Overcast
2:15 PM 46.4 °F 44.3 °F 39.2 °F 76% 30.17 in 10.0 mi South 4.6 mph - N/A   Overcast
2:35 PM 46.4 °F 43.5 °F 39.2 °F 76% 30.17 in 10.0 mi South 5.8 mph - N/A   Overcast
2:55 PM 46.4 °F 42.9 °F 39.2 °F 76% 30.17 in 10.0 mi South 6.9 mph - N/A   Overcast
3:15 PM 46.4 °F 45.2 °F 39.2 °F 76% 30.17 in 10.0 mi South 3.5 mph - N/A   Overcast
3:35 PM 44.6 °F 43.1 °F 39.2 °F 81% 30.18 in 10.0 mi SSE 3.5 mph - N/A   Drizzle
3:55 PM 44.6 °F 43.1 °F 39.2 °F 81% 30.18 in 10.0 mi South 3.5 mph - N/A   Drizzle
4:15 PM 42.8 °F - 41.0 °F 93% 30.19 in 5.0 mi Calm Calm - N/A Rain Rain
4:55 PM 42.8 °F - 37.4 °F 81% 30.20 in 7.0 mi Calm Calm - N/A   Drizzle
5:15 PM 42.8 °F - 37.4 °F 81% 30.20 in 10.0 mi Calm Calm - N/A   Light Drizzle
5:35 PM 41.0 °F - 37.4 °F 87% 30.20 in 10.0 mi Calm Calm - N/A Rain Rain
5:55 PM 41.0 °F - 37.4 °F 87% 30.20 in 10.0 mi Calm Calm - N/A   Overcast
6:15 PM 41.0 °F - 37.4 °F 87% 30.21 in 10.0 mi Calm Calm - N/A Rain Rain
6:35 PM 41.0 °F - 37.4 °F 87% 30.21 in 5.0 mi Calm Calm - N/A   Drizzle
6:55 PM 41.0 °F - 39.2 °F 93% 30.22 in 5.0 mi Calm Calm - N/A Rain Light Rain
7:15 PM 41.0 °F 39.0 °F 39.2 °F 93% 30.21 in 7.0 mi SSE 3.5 mph - N/A Rain Rain
7:35 PM 41.0 °F - 37.4 °F 87% 30.21 in 7.0 mi Calm Calm - N/A Rain Light Rain
7:55 PM 41.0 °F 39.0 °F 37.4 °F 87% 30.21 in 4.0 mi South 3.5 mph - N/A   Overcast
8:15 PM 41.0 °F - 37.4 °F 87% 30.22 in 7.0 mi Calm Calm - N/A   Light Drizzle
8:35 PM 41.0 °F - 37.4 °F 87% 30.21 in 5.0 mi Calm Calm - N/A Rain Light Rain
8:55 PM 39.2 °F - 37.4 °F 93% 30.21 in 7.0 mi Calm Calm - N/A   Overcast
9:15 PM 39.2 °F 37.0 °F 37.4 °F 93% 30.21 in 10.0 mi South 3.5 mph - N/A Rain Light Rain
9:35 PM 39.2 °F - 37.4 °F 93% 30.21 in 10.0 mi Calm Calm - N/A   Overcast
9:55 PM 39.2 °F - 35.6 °F 87% 30.22 in 10.0 mi Calm Calm - N/A   Overcast
10:15 PM 39.2 °F - 35.6 °F 87% 30.21 in 10.0 mi Calm Calm - N/A   Overcast
10:35 PM 39.2 °F - 33.8 °F 81% 30.21 in 10.0 mi Calm Calm - N/A   Overcast
10:55 PM 39.2 °F - 35.6 °F 87% 30.21 in 10.0 mi Calm Calm - N/A   Drizzle
11:15 PM 39.2 °F - 33.8 °F 81% 30.21 in 10.0 mi Calm Calm - N/A Rain Light Rain
11:35 PM 39.2 °F 37.0 °F 33.8 °F 81% 30.20 in 10.0 mi South 3.5 mph - N/A   Overcast
11:55 PM 37.4 °F 34.9 °F 33.8 °F 87% 30.20 in 10.0 mi SSE 3.5 mph - N/A   Overcast